[[{"header":{"parameterUnit":"m.s-1","parameterCategory":1,"la1":30.2991,"la2":30.254,"lo1":-89.0895,"lo2":-89.0444,"dy":0.0017,"dx":0.0017,"nx":28,"ny":28,"refTime":"2023-11-06T09:00:00:Z","depth":0,"parameterNumber":2,"parameterNumberName":"U-component_of_WINDS"},"data":[0,0,0,0,0,0,0,0,0,0,0,0,0,0,0,0,0,0,0,0,0,0,0,0,0,0,0,0,0,0,0,0,0,0,0,0,0,0,0,0,0,0,0,0,0,0,0,0,0,0,0,0,0,0,0,0,0,0,0.5568,0.5568,0,0.563,0.5631,0.5631,0.562,0.5618,0.5617,0.5616,0.5684,0.5687,0.5689,0,0,0,0,0,0,0,0,0,0,0,0,0,0.5444,0.5446,0.5568,0.5569,0.5569,0.563,0.5631,0.5631,0.562,0.5618,0.5617,0.5616,0.5683,0.5686,0.569,0,0,0,0,0,0,0,0,0,0,0,0,0,0.5501,0.5447,0.5568,0.5571,0.5572,0.563,0.5631,0.5632,0.562,0.5618,0.5617,0.5615,0.5682,0.5686,0.569,0.575,0,0,0.5703,0.5705,0,0,0,0,0,0,0,0,0.5498,0.5506,0.5569,0.5571,0.5572,0.5615,0.5612,0.5671,0.562,0.5602,0.5616,0.5614,0.5663,0.5668,0.5684,0.5753,0.5756,0.5703,0.5706,0.5708,0.5709,0,0,0,0,0,0,0,0.5494,0.5503,0.5592,0.557,0.5572,0.557,0.5577,0.5623,0.5641,0.5603,0.5603,0.561,0.5663,0.568,0.5685,0.5757,0.5703,0.5707,0.571,0.5711,0.5881,0.5883,0,0,0,0,0,0,0.5488,0.55,0.559,0.5594,0.553,0.5574,0.5581,0.5603,0.564,0.5644,0.5611,0.5609,0.5673,0.568,0.5688,0.5762,0.5708,0.5712,0.5714,0.5879,0.5882,0.5884,0,0,0,0,0,0,0.5486,0.5496,0.5588,0.5547,0.5558,0.5578,0.5603,0.5605,0.5622,0.5646,0.565,0.5625,0.5672,0.5682,0.5735,0.5764,0.5714,0.5718,0.5877,0.588,0.5883,0.591,0,0,0,0,0,0,0.5482,0.5495,0.5517,0.5547,0.556,0.5633,0.5604,0.5608,0.5629,0.5626,0.566,0.5664,0.5672,0.5728,0.5739,0.5769,0.5721,0.5874,0.5878,0.5882,0.5906,0.5913,0.5919,0,0,0,0,0,0.5478,0.5523,0.5519,0.553,0.5588,0.5634,0.5642,0.5649,0.5631,0.5654,0.567,0.5663,0.5759,0.5734,0.5746,0.5777,0.5873,0.5877,0.5881,0.5903,0.5912,0.5919,0,0,0,0,0,0,0.5497,0.5527,0.5522,0.5578,0.5604,0.5632,0.5661,0.5657,0.5689,0.5686,0.5694,0.5702,0.5756,0.5772,0.5744,0.5838,0.5813,0.582,0.5826,0.5834,0.584,0.5836,0.5725,0,0,0,0,0,0.5508,0.5541,0.5566,0.5613,0.5626,0.5642,0.5662,0.5665,0.5692,0.5703,0.5723,0.5751,0.5788,0.5812,0.5846,0.5908,0.5916,0.5936,0.5942,0.5947,0.5954,0.5989,0.5999,0.5898,0.5898,0.5898,0,0,0.553,0.5551,0.5572,0.5618,0.5638,0.5674,0.5651,0.569,0.5718,0.571,0.5761,0.5777,0.5809,0.5867,0.5893,0.5882,0.5983,0.5953,0.5957,0.596,0.5995,0.6004,0.6013,0.5901,0.59,0.59,0,0,0.5591,0.5609,0.5651,0.5671,0.5701,0.5712,0.5722,0.5751,0.5761,0.5812,0.5807,0.5841,0.5903,0.5927,0.5947,0.6017,0.6012,0.6028,0.6062,0.6097,0.6105,0.6112,0.6138,0.6148,0.6034,0.6034,0.6034,0,0.5615,0.5669,0.5673,0.5713,0.5734,0.5727,0.5771,0.5791,0.5832,0.5848,0.5833,0.5912,0.5933,0.5998,0.6015,0.603,0.6044,0.6025,0.6103,0.611,0.6117,0.6142,0.6152,0.6036,0.6036,0.6036,0.6035,0,0.5698,0.5736,0.5766,0.5805,0.5829,0.5871,0.5883,0.5908,0.5909,0.5921,0.5975,0.5999,0.604,0.6055,0.6057,0.6121,0.6112,0.61,0.6076,0.6128,0.6152,0.6162,0.6039,0.6038,0.6037,0.6037,0,0,0.5773,0.5813,0.5825,0.5843,0.5876,0.5906,0.5948,0.5986,0.6008,0.6037,0.6074,0.6127,0.6116,0.6139,0.6143,0.6174,0.623,0.6158,0.6159,0.6172,0.6304,0.6314,0.6325,0.6227,0.6228,0.623,0.6302,0,0.5837,0.591,0.5916,0.5982,0.6018,0.6012,0.6049,0.6075,0.6088,0.6121,0.6135,0.6174,0.6156,0.617,0.6199,0.6217,0.6257,0.6211,0.6263,0.6265,0.6257,0.6337,0.6348,0.6414,0.6311,0.6313,0.6314,0,0.5922,0.5952,0.6022,0.6051,0.6067,0.61,0.6136,0.6167,0.6197,0.6204,0.623,0.623,0.6276,0.6249,0.6313,0.6282,0.6303,0.6315,0.6318,0.6324,0.6294,0.6348,0.6436,0.6446,0.6329,0.6328,0.6327,0,0.5971,0.6029,0.6079,0.6094,0.613,0.6153,0.617,0.6197,0.622,0.6253,0.6268,0.6306,0.6327,0.6357,0.6369,0.6347,0.6433,0.6406,0.6442,0.6442,0.6461,0.646,0.6556,0.6473,0.6473,0.6472,0.6472,0,0.6043,0.6086,0.6102,0.6132,0.6181,0.6188,0.6237,0.6252,0.6277,0.6312,0.631,0.6343,0.6355,0.6391,0.6401,0.6453,0.6463,0.6471,0.6474,0.6472,0.6472,0.6488,0.6484,0.6475,0.6474,0.6474,0.6473,0,0.6107,0.6118,0.6172,0.6201,0.621,0.6245,0.627,0.6301,0.6313,0.6358,0.6369,0.6388,0.6431,0.6445,0.6496,0.6502,0.6564,0.6562,0.6554,0.6555,0.6591,0.6588,0.6701,0.6718,0.6622,0.6623,0.6624,0,0.6152,0.6185,0.6218,0.624,0.6257,0.6294,0.6317,0.6326,0.6351,0.6388,0.6415,0.6456,0.649,0.6558,0.6578,0.6618,0.6618,0.6655,0.6624,0.6622,0.6621,0.6619,0.6623,0.6661,0.6662,0.6663,0.6663,0,0.6233,0.6237,0.627,0.6306,0.6334,0.6364,0.6392,0.6411,0.6424,0.6452,0.6495,0.6521,0.6573,0.6616,0.6656,0.6675,0.6673,0.6673,0.6684,0.6683,0.6678,0.6683,0.6572,0.667,0.667,0.6669,0.6669,0.6669,0.629,0.632,0.6347,0.6385,0.6407,0.6434,0.6464,0.648,0.6515,0.6558,0.6561,0.6608,0.6639,0.6693,0.6713,0.6751,0.6741,0.6756,0.676,0.6765,0.6768,0.6671,0.6759,0.6759,0.6758,0.6758,0.6758,0,0.6372,0.6389,0.6424,0.6463,0.6493,0.6486,0.6518,0.6544,0.6585,0.6613,0.6646,0.6696,0.6737,0.6761,0.6802,0.6828,0.6829,0.6839,0.6838,0.6843,0.6774,0.6761,0.6839,0.6839,0.6839,0.6839,0.6839,0.6839,0.6418,0.6468,0.6476,0.6538,0.6556,0.6601,0.662,0.6645,0.6667,0.6723,0.6757,0.6771,0.6798,0.6842,0.6881,0.6887,0.6903,0.6915,0.6921,0.6856,0.6848,0.684,0.6828,0.6918,0.6918,0.6987,0.6988,0.6988]},{"header":{"parameterUnit":"m.s-1","parameterCategory":1,"la1":30.2991,"la2":30.254,"lo1":-89.0895,"lo2":-89.0444,"dy":0.0017,"dx":0.0017,"nx":28,"ny":28,"refTime":"2023-11-06T09:00:00:Z","depth":0,"parameterNumber":3,"parameterNumberName":"V-component_of_WINDS"},"data":[0,0,0,0,0,0,0,0,0,0,0,0,0,0,0,0,0,0,0,0,0,0,0,0,0,0,0,0,0,0,0,0,0,0,0,0,0,0,0,0,0,0,0,0,0,0,0,0,0,0,0,0,0,0,0,0,0,0,-0.2158,-0.2157,0,-0.2098,-0.2097,-0.2097,-0.2084,-0.2084,-0.2085,-0.2085,-0.202,-0.2018,-0.2016,0,0,0,0,0,0,0,0,0,0,0,0,0,-0.2256,-0.2255,-0.2158,-0.2157,-0.2156,-0.2098,-0.2097,-0.2096,-0.2084,-0.2084,-0.2085,-0.2085,-0.2021,-0.2019,-0.2016,0,0,0,0,0,0,0,0,0,0,0,0,0,-0.2207,-0.2254,-0.2158,-0.2143,-0.2141,-0.2098,-0.2097,-0.2096,-0.2084,-0.2084,-0.2085,-0.2086,-0.2022,-0.2019,-0.2016,-0.1982,0,0,-0.2006,-0.2004,0,0,0,0,0,0,0,0,-0.221,-0.2203,-0.2146,-0.2144,-0.2142,-0.2099,-0.2108,-0.2058,-0.2083,-0.2105,-0.2085,-0.2086,-0.2046,-0.2041,-0.2028,-0.1979,-0.1977,-0.2006,-0.2004,-0.2002,-0.2001,0,0,0,0,0,0,0,-0.2213,-0.2206,-0.2134,-0.2145,-0.2142,-0.2138,-0.2132,-0.2099,-0.2072,-0.2103,-0.2102,-0.2096,-0.2045,-0.2031,-0.2026,-0.1976,-0.2006,-0.2003,-0.2001,-0.2,-0.1896,-0.1895,0,0,0,0,0,0,-0.222,-0.2209,-0.2136,-0.2132,-0.2178,-0.2136,-0.2129,-0.2112,-0.2073,-0.2067,-0.2095,-0.2095,-0.2036,-0.203,-0.2024,-0.1981,-0.2002,-0.1999,-0.1997,-0.1896,-0.1895,-0.1894,0,0,0,0,0,0,-0.2222,-0.2213,-0.2138,-0.217,-0.216,-0.2133,-0.2115,-0.211,-0.2097,-0.2067,-0.2061,-0.2086,-0.2036,-0.2028,-0.1993,-0.1979,-0.1998,-0.1995,-0.1897,-0.1896,-0.1895,-0.1896,0,0,0,0,0,0,-0.2225,-0.2214,-0.2202,-0.217,-0.2159,-0.2109,-0.2114,-0.2109,-0.2092,-0.2091,-0.2057,-0.2052,-0.2036,-0.1998,-0.199,-0.1975,-0.1992,-0.1898,-0.1897,-0.1895,-0.1897,-0.1895,-0.1894,0,0,0,0,0,-0.2228,-0.2204,-0.2202,-0.2193,-0.2143,-0.2108,-0.2102,-0.2086,-0.2091,-0.2077,-0.2058,-0.2053,-0.1982,-0.1994,-0.1985,-0.1969,-0.1899,-0.1897,-0.1895,-0.1898,-0.1896,-0.1894,0,0,0,0,0,0,-0.2234,-0.22,-0.2196,-0.2162,-0.2138,-0.2106,-0.2089,-0.2084,-0.2057,-0.2058,-0.2038,-0.203,-0.1995,-0.1979,-0.1993,-0.1934,-0.1941,-0.1937,-0.1946,-0.1943,-0.1941,-0.1945,-0.199,0,0,0,0,0,-0.2232,-0.2208,-0.2179,-0.215,-0.2139,-0.2116,-0.2101,-0.209,-0.2065,-0.2054,-0.2032,-0.2007,-0.1978,-0.196,-0.1933,-0.1896,-0.1887,-0.188,-0.1878,-0.1877,-0.1873,-0.185,-0.1847,-0.1888,-0.1888,-0.1888,0,0,-0.2226,-0.2204,-0.219,-0.2151,-0.2132,-0.2106,-0.2108,-0.2081,-0.2061,-0.205,-0.2015,-0.1998,-0.1968,-0.1931,-0.1913,-0.1916,-0.186,-0.1874,-0.1873,-0.187,-0.1848,-0.1844,-0.1841,-0.1887,-0.1887,-0.1887,0,0,-0.2201,-0.2183,-0.2157,-0.2138,-0.2109,-0.2094,-0.2088,-0.2057,-0.2046,-0.2011,-0.2002,-0.1978,-0.193,-0.1909,-0.1891,-0.1859,-0.1853,-0.1851,-0.184,-0.1818,-0.1815,-0.1812,-0.1799,-0.1794,-0.1848,-0.1848,-0.1848,0,-0.2197,-0.2159,-0.2144,-0.2117,-0.21,-0.2091,-0.2063,-0.2045,-0.2008,-0.1996,-0.2,-0.1939,-0.1918,-0.1876,-0.1868,-0.1855,-0.1846,-0.1854,-0.1817,-0.1814,-0.1811,-0.1798,-0.1793,-0.1848,-0.1848,-0.1848,-0.1848,0,-0.2154,-0.2128,-0.211,-0.2076,-0.2057,-0.203,-0.201,-0.1992,-0.1984,-0.1968,-0.1932,-0.1907,-0.1874,-0.1863,-0.1854,-0.1819,-0.1821,-0.1821,-0.1827,-0.1807,-0.1794,-0.1789,-0.1847,-0.1847,-0.1848,-0.1848,0,0,-0.213,-0.2089,-0.2083,-0.2067,-0.2035,-0.2013,-0.1985,-0.1954,-0.1938,-0.1914,-0.1888,-0.1849,-0.1849,-0.1829,-0.1818,-0.1799,-0.1773,-0.1801,-0.18,-0.1796,-0.1731,-0.1729,-0.1724,-0.177,-0.1769,-0.1768,-0.1732,0,-0.21,-0.2052,-0.2038,-0.1996,-0.1971,-0.1962,-0.1937,-0.1914,-0.1899,-0.1874,-0.1857,-0.1828,-0.1831,-0.1819,-0.1801,-0.1781,-0.176,-0.1783,-0.1744,-0.1743,-0.175,-0.1718,-0.1716,-0.1684,-0.1728,-0.1727,-0.1726,0,-0.2059,-0.2034,-0.199,-0.1961,-0.195,-0.1928,-0.1898,-0.1875,-0.1848,-0.1838,-0.1817,-0.1807,-0.1776,-0.1786,-0.1742,-0.1758,-0.1741,-0.1729,-0.1728,-0.1722,-0.1732,-0.1709,-0.1673,-0.1668,-0.1719,-0.1719,-0.172,0,-0.2044,-0.2,-0.1968,-0.1954,-0.192,-0.1904,-0.1889,-0.1863,-0.1845,-0.1818,-0.1806,-0.1776,-0.1759,-0.1735,-0.1717,-0.1726,-0.1674,-0.1682,-0.1663,-0.1664,-0.1651,-0.1652,-0.161,-0.1644,-0.1644,-0.1644,-0.1644,0,-0.2011,-0.1984,-0.196,-0.194,-0.1909,-0.1894,-0.1863,-0.1847,-0.1824,-0.1799,-0.179,-0.1766,-0.1745,-0.1719,-0.1705,-0.1669,-0.1662,-0.1652,-0.1648,-0.1652,-0.1653,-0.1639,-0.164,-0.1643,-0.1643,-0.1643,-0.1644,0,-0.1988,-0.1972,-0.1935,-0.1906,-0.1898,-0.1876,-0.185,-0.1829,-0.1814,-0.1783,-0.1775,-0.1751,-0.1719,-0.1699,-0.1659,-0.1649,-0.161,-0.1608,-0.1619,-0.1617,-0.1599,-0.16,-0.1545,-0.1536,-0.1578,-0.1578,-0.1577,0,-0.1968,-0.1947,-0.1915,-0.1899,-0.1884,-0.1857,-0.1839,-0.1823,-0.1804,-0.1771,-0.1754,-0.1722,-0.1696,-0.1645,-0.1623,-0.1592,-0.1588,-0.1571,-0.1583,-0.1586,-0.1585,-0.1585,-0.1582,-0.1568,-0.1568,-0.1567,-0.1567,0,-0.1932,-0.1925,-0.19,-0.1871,-0.185,-0.1827,-0.1803,-0.179,-0.1769,-0.1748,-0.1716,-0.1696,-0.1655,-0.1623,-0.159,-0.1572,-0.1565,-0.1564,-0.1557,-0.156,-0.1566,-0.156,-0.1612,-0.1565,-0.1565,-0.1565,-0.1565,-0.1565,-0.1908,-0.1889,-0.1863,-0.1835,-0.1816,-0.1795,-0.1773,-0.1756,-0.173,-0.1696,-0.1688,-0.1654,-0.1627,-0.1582,-0.1564,-0.1536,-0.1538,-0.1529,-0.1526,-0.1524,-0.1523,-0.1573,-0.153,-0.153,-0.153,-0.153,-0.153,0,-0.187,-0.1854,-0.1828,-0.1796,-0.1774,-0.1772,-0.1745,-0.1726,-0.1697,-0.1673,-0.1647,-0.161,-0.1579,-0.1554,-0.1522,-0.1504,-0.15,-0.1496,-0.1496,-0.1491,-0.1524,-0.1531,-0.1499,-0.1499,-0.1499,-0.1499,-0.1499,-0.1499,-0.1848,-0.1814,-0.1804,-0.1761,-0.1744,-0.1712,-0.1697,-0.1676,-0.1657,-0.1616,-0.159,-0.1575,-0.155,-0.1516,-0.1486,-0.148,-0.1467,-0.1463,-0.1456,-0.1486,-0.1489,-0.1492,-0.15,-0.1461,-0.1461,-0.1426,-0.1425,-0.1425]}]]